User: anonymous   Login
Location: Hepcat Sky Observatory
(29.9800°N, 95.6500°W)
Time: 08:49:07
(UTC-05:00)
Language:

Cosmos 1602 Rocket - Orbit

View from above orbital plane
View from above orbital plane
View from above satellite
View from above satellite

Ground track
Ground track

The orbit data is extracted from the following two-line orbital elements,

1 15332U 84105B   16270.58832218  .00000154  00000-0  15792-4 0  9993
2 15332  82.5326  74.4573 0021810 155.8668 271.2765 14.83262569727511
Epoch (UTC): 26 September 2016 14:07:11
Eccentricity: 0.0021810
inclination: 82.5326°
perigee height: 604 km
apogee height: 634 km
right ascension of ascending node: 74.4573°
argument of perigee: 155.8668°
revolutions per day: 14.83262569
mean anomaly at epoch: 271.2765°
orbit number at epoch: 72751

The dashed part of the orbit path shows where the satellite is in the earth's shadow,  

DLR